Snowfall_Accumulation
1.1 2.9 5.3 2.9 2.1 2.5 3.1 3.8 3.2 1.3 0.2 1.0 1.3 1.2 0.9 0.5 0.5 0.6 0.3 0.2 0.2 0.3 0.2 0.1 0.0 0.0 0.0 0.0 0.0 0.0 0.0 0.0 0.0 0.0 0.0 0.0 0.0 0.0 0.0 0.1 0.1 0.3 0.4 0.7
3.5 4.7 1.3 0.4 0.8 2.0 3.4 4.5 3.0 1.1 0.5 1.2 1.6 1.4 1.0 0.6 0.7 0.6 0.4 0.6 0.5 0.5 0.5 0.4 0.2 0.1 0.0 0.0 0.0 0.0 0.0 0.0 0.0 0.0 0.0 0.0 0.0 0.0 0.0 0.0 0.1 0.2 0.4 0.8
5.2 2.0 0.5 1.5 2.3 3.6 3.8 3.7 2.9 3.0 1.3 1.4 2.5 2.5 1.3 0.7 0.6 0.6 0.5 0.6 0.6 0.6 0.6 0.5 0.2 0.2 0.1 0.1 0.0 0.0 0.0 0.0 0.0 0.0 0.0 0.0 0.0 0.0 0.0 0.0 0.0 0.1 0.2 0.8
2.8 0.6 0.7 2.1 2.6 3.5 4.3 1.2 1.9 2.8 4.0 4.8 4.2 7.1 1.9 1.2 0.8 0.9 0.7 0.8 0.6 0.4 0.4 0.3 0.5 0.3 0.3 0.2 0.1 0.0 0.1 0.0 0.0 0.0 0.0 0.0 0.0 0.0 0.0 0.0 0.0 0.1 0.1 0.7
3.4 0.7 1.1 2.6 1.7 1.8 2.9 0.9 1.5 3.0 5.0 5.7 3.2 6.8 3.1 1.3 1.4 1.1 0.9 0.9 0.6 0.5 0.7 0.7 0.8 0.8 0.5 0.6 0.2 0.1 0.1 0.1 0.1 0.0 0.0 0.0 0.0 0.0 0.0 0.0 0.0 0.1 0.1 0.2
1.6 0.7 0.9 1.2 0.4 0.7 1.3 1.3 1.8 3.0 6.4 12.5 3.6 5.4 4.7 3.3 3.4 1.9 1.0 1.0 0.7 0.7 0.8 0.8 0.8 0.9 0.9 0.7 0.7 0.3 0.2 0.2 0.1 0.1 0.1 0.2 0.2 0.2 0.1 0.1 0.0 0.1 0.1 0.1
4.7 2.1 1.0 0.8 1.9 1.7 2.7 8.0 18.8 20.0 18.3 9.7 1.7 3.2 4.1 2.6 2.1 1.8 1.7 1.7 1.2 0.8 0.8 0.9 0.9 0.7 1.0 0.9 0.6 0.8 0.3 0.8 0.8 0.4 0.5 0.5 0.2 0.2 0.3 0.3 0.2 0.1 0.1 0.2
9.9 9.2 2.0 1.2 2.2 3.5 2.9 5.7 14.2 14.4 9.1 4.0 2.4 3.7 3.4 1.9 1.3 1.2 1.0 1.0 1.0 0.9 0.6 0.7 0.9 0.9 0.8 0.7 0.6 0.7 0.7 0.7 0.8 0.7 0.5 0.5 0.2 0.2 0.2 0.2 0.2 0.3 0.1 0.1
9.2 6.5 0.9 0.6 0.9 2.3 4.8 5.6 4.6 9.5 7.0 4.8 3.8 3.0 2.5 1.3 1.1 1.0 0.9 0.7 0.9 1.0 0.9 0.9 0.9 0.8 0.8 0.8 0.6 0.7 0.7 0.5 0.5 0.5 0.6 0.5 0.4 0.3 0.3 0.2 0.3 0.2 0.0 0.0
9.1 7.8 1.8 0.6 1.1 1.3 2.6 3.6 6.7 13.1 11.3 6.6 3.9 3.5 4.2 2.7 2.3 1.6 1.5 1.3 0.8 1.0 1.2 1.4 0.8 0.7 0.9 0.7 0.7 0.7 0.8 0.8 0.4 0.5 0.5 0.5 1.0 0.4 0.4 0.3 0.4 0.4 0.3 0.1
6.7 9.5 5.7 2.4 4.2 4.0 3.5 5.1 7.8 10.7 9.2 8.3 5.4 4.5 3.5 3.3 2.4 1.9 1.7 1.5 1.0 1.0 1.1 1.2 0.8 0.5 0.7 0.6 0.7 0.8 0.9 0.9 0.7 0.5 0.4 0.9 0.8 0.4 0.4 0.5 0.5 0.5 0.4 0.4
5.8 9.7 8.3 3.8 1.8 1.9 3.4 5.2 7.7 12.8 9.8 6.5 6.3 5.1 2.6 1.9 1.8 1.7 1.6 1.6 1.4 1.1 0.9 0.7 0.8 0.4 0.4 0.6 0.7 0.8 1.1 1.1 1.0 0.6 0.5 0.4 0.4 0.4 0.4 0.4 0.5 0.5 0.5 0.5
10.6 15.0 13.5 5.9 3.1 2.6 4.6 4.9 5.8 7.8 9.6 7.4 6.7 5.0 1.9 1.1 0.8 1.0 1.1 1.3 1.4 1.0 0.7 0.8 0.8 0.5 0.5 0.7 0.6 0.9 0.9 1.3 1.0 1.0 0.7 0.4 0.3 0.4 0.4 0.4 0.4 0.4 0.4 0.4
8.5 16.9 11.8 9.5 7.2 7.1 6.9 5.1 4.7 8.0 11.7 7.2 4.2 3.6 2.3 1.6 1.3 1.1 1.0 1.0 1.5 1.6 1.0 0.9 1.0 0.8 0.6 0.6 0.7 0.7 0.9 1.2 1.0 0.9 1.0 0.9 0.8 0.4 0.4 0.4 0.3 0.3 0.3 0.4
7.7 13.7 6.5 4.0 2.9 4.0 4.5 3.9 3.8 6.0 6.3 6.1 3.5 3.1 3.0 2.6 2.2 1.8 1.5 1.3 1.4 1.5 1.3 1.1 1.2 1.3 0.8 0.7 0.5 0.4 0.6 0.9 0.9 1.0 0.9 0.9 0.9 0.9 0.7 0.4 0.3 0.3 0.3 0.4
9.1 11.8 5.8 3.5 2.4 3.0 3.5 2.9 3.0 3.5 3.7 3.7 2.8 3.0 2.6 2.4 1.9 1.9 1.8 1.7 1.8 1.9 1.5 1.2 1.3 1.6 1.3 0.8 0.6 0.5 0.6 0.7 0.8 1.0 1.0 1.0 1.1 1.1 1.2 0.7 0.4 0.4 0.4 0.5
10.6 11.6 10.2 5.4 2.6 4.5 5.6 3.8 3.8 4.0 3.9 4.3 4.8 3.9 2.6 2.4 2.4 2.7 2.8 2.8 2.8 2.7 2.1 1.6 1.5 1.7 1.3 1.0 0.8 0.9 0.7 0.7 0.8 0.9 1.1 1.2 1.2 1.2 1.2 1.3 1.1 0.7 0.7 0.9
9.1 11.3 14.8 9.7 7.0 10.0 4.1 2.5 2.8 3.4 3.8 4.2 4.0 3.2 3.1 3.2 2.8 2.6 2.7 3.4 3.4 2.9 2.5 2.2 2.0 1.4 1.1 0.8 0.8 0.7 0.6 0.8 0.8 0.8 0.9 1.0 1.2 1.1 1.2 1.3 1.5 1.2 1.1 1.0
4.0 10.8 17.1 15.1 10.8 5.5 2.6 2.3 3.0 4.1 4.6 3.7 3.3 3.1 2.7 2.2 1.9 2.1 1.8 2.3 3.2 3.2 3.0 2.7 2.1 1.4 1.0 0.6 0.7 0.7 0.7 0.6 0.6 0.7 0.9 1.0 1.1 1.1 1.0 1.2 1.7 1.5 1.4 1.2
4.0 9.0 18.3 17.1 13.2 6.1 3.6 2.1 1.7 2.8 5.6 3.1 3.0 3.3 2.8 2.6 3.8 3.0 2.1 2.4 2.6 2.4 2.7 2.7 2.3 1.6 0.9 0.3 0.5 0.7 0.8 0.6 0.7 1.0 0.9 1.0 1.0 1.2 1.1 1.4 2.0 1.7 1.5 1.1
9.0 14.8 18.1 14.5 11.8 4.8 3.2 2.0 1.4 5.1 6.4 2.9 2.8 3.0 3.1 3.7 4.5 3.4 2.6 2.5 2.7 2.3 2.5 2.5 2.2 1.7 1.2 0.5 0.4 0.7 0.9 1.0 0.8 0.9 0.9 0.9 1.1 1.1 1.3 1.8 2.1 1.6 1.4 1.7
7.1 10.6 11.3 10.8 12.4 6.5 2.8 3.3 5.3 6.0 2.9 2.1 2.0 2.1 2.3 2.3 2.2 2.2 2.2 2.2 1.9 2.2 2.0 1.8 2.2 1.9 1.3 0.8 0.7 0.7 0.7 1.0 0.8 0.9 1.1 1.3 1.4 1.2 1.0 1.6 2.0 1.8 1.9 1.8
5.8 7.2 7.6 7.3 6.0 3.8 2.7 3.3 3.1 2.4 2.4 1.8 1.7 1.5 1.6 1.8 1.8 2.1 2.1 1.9 1.8 1.9 1.9 1.7 2.0 1.9 1.3 1.0 0.9 1.3 0.9 1.0 1.3 1.4 1.3 1.6 1.4 1.4 1.3 1.5 1.7 1.6 1.7 1.9
3.4 3.1 5.3 5.3 3.3 2.5 2.4 2.2 2.0 1.7 1.8 1.5 1.5 1.3 1.2 1.4 1.5 1.9 1.8 1.7 1.7 1.5 1.7 1.7 1.8 1.7 1.5 1.4 0.8 1.2 1.2 1.3 1.5 1.5 1.5 1.6 1.7 1.7 1.6 1.6 1.7 1.9 2.0 3.1
3.0 3.7 4.9 4.7 2.6 2.0 1.9 1.9 1.8 1.5 1.4 1.3 1.3 1.3 1.2 1.4 1.6 1.6 1.9 1.7 1.6 1.7 1.7 1.7 1.9 1.9 1.7 1.7 1.3 1.1 1.4 1.5 1.5 1.5 1.7 2.0 1.9 2.0 1.7 1.8 1.7 2.1 2.3 3.5
2.4 3.4 5.1 4.7 2.7 3.3 2.6 2.0 1.8 1.8 1.7 1.6 1.6 1.6 1.3 1.5 1.9 1.8 2.0 1.9 2.0 1.6 1.8 1.7 1.6 2.1 1.8 1.8 1.6 1.5 1.6 1.7 1.8 1.8 1.6 1.9 2.1 1.7 1.6 1.7 1.8 1.4 1.6 2.0